www.pogodaiklimat.ru

Погода и климат >> Архив погоды >> Мали >> Nara


ПОГОДА в Nara

  • Прогноз погоды в Nara
  • Монитор погоды в Nara
  • Климат города

АРХИВ ПОГОДЫ в Nara

Время (UTC), дата Ветер
(напр.,м/с)
 
Видим.   Явления Облачность Т
(С)
Тd
(С)
f
(%)
Тe
(С)
Тes
(С)
Комфортность P
(гПа)
Po
(гПа)
Тmin
(С)
Tmax
(С)
R
(мм)
R24
(мм)
S
(см)
18 18.05 штиль 0 10 км 9/0
[Ci sp]
+40.5 +13.5 20 +40 +41 очень
жарко
1006.4 977.4 +42.8
21 18.05 С 1 10 км 8/0
[Ci sp]
+37.5 +13.5 24 +34 +34 очень
жарко
1006.5 977.6
00 19.05 СЗ 1 10 км зарница 9/1 1200 м
[Cb cap Ci sp]
+36.6 +14.3 26 +37 +37 очень
жарко
1007.8 979.2
03 19.05 СЗ 1 10 км 5/0
[Ci sp]
+33.4 +16.3 36 +36 +36 очень
душно
1007.0 978.4
06 19.05 штиль 0 10 км 8/0
[Ci sp]
+31.4 +16.8 42 +35 +35 очень
душно
1007.1 978.3 +31.4
09 19.05 ЮЗ 1 10 км 9/0
[Ci sp]
+35.0 +15.0 30 +36 +45 очень
жарко
1008.2 979.4
12 19.05 З 1 10 км 8/0
[Ci sp]
+40.9 +14.7 22 +42 +63 опасность
перегрева
1007.0 978.5
15 19.05 СЗ 1 10 км 6/1 900 м
[Sc Ci sp]
+43.2 +11.6 16 +42 +56 опасность
перегрева
1004.6 976.1
18 19.05 ЮЗ 1 10 км 8/0
[Ac lent Ci sp]
+41.3 +13.2 19 +41 +42 опасность
перегрева
1004.4 975.7 +43.8
21 19.05 штиль 0 10 км 9/0
[Ac lent Ci sp]
+38.2 +13.1 22 +38 +38 очень
жарко
1005.4 976.7
00 20.05 штиль 0 10 км 8/0
[Ci sp]
+37.3 +17.0 30 +40 +40 очень
душно
1006.1 977.6
03 20.05 штиль 0 10 км 6/0
[Ci sp]
+34.0 +16.7 36 +37 +37 очень
душно
1005.3 976.8
06 20.05 ЮВ 3 8000 м пыль 9/0
[Ac As Ci sp]
+33.5 +14.3 31 +35 +35 душно 1005.8 977.2 +33.5
09 20.05 Ю 4 10 км 9/0
[Ac As Cs]
+33.5 +18.2 40 +38 +41 очень
душно
1008.1 979.3
12 20.05 ЮЗ 1 10 км 9/0
[Ci sp]
+40.5 +14.5 22 +41 +62 опасность
перегрева
1006.8 978.3
15 20.05 ЮВ 1 10 км 9/0
[Ac As Ci sp]
+43.4 +11.7 16 +43 +53 опасность
перегрева
1004.6 976.2
18 20.05 Ю 1 10 км 9/3 900 м
[Sc Ci sp]
+42.2 +11.6 16 +41 +42 опасность
перегрева
1004.1 975.8 +43.8
21 20.05 штиль 0 10 км 5/0
[Ci sp]
+38.4 +13.7 23 +39 +39 очень
душно
1005.5 976.8
00 21.05 штиль 0 10 км 8/0
[Ci sp]
+35.5 +14.6 29 +37 +37 душно 1005.4 976.9
03 21.05 ЮЗ 2 10 км 8/0
[Ci sp]
+36.0 +9.7 20 +35 +35 очень
жарко
1004.4 976.0
06 21.05 штиль 0 10 км 8/0
[Ac lent Ci sp]
+32.5 +13.9 32 +34 +34 очень
жарко
1005.4 976.8 +32.5
09 21.05 ЮЗ 3 10 км 8/0
[Ac lent Ci sp]
+37.4 +7.4 16 +35 +41 очень
жарко
1006.8 978.2
12 21.05 Ю 2 10 км 6/0
[Ac lent Ci sp]
+42.1 +10.0 15 +41 +56 опасность
перегрева
1006.5 978.0
15 21.05 З 2 10 км 9/1 900 м
[Sc Ci sp]
+43.8 +6.3 11 +41 +52 опасность
перегрева
1003.4 975.1
18 21.05 штиль 0 10 км 9/0
[Ci sp]
+42.7 +10.0 14 +41 +42 опасность
перегрева
1003.0 974.5 +44.5
21 21.05 Ю 3 10 км 9/0
[Ci sp]
+37.3 +18.1 32 +41 +41 опасность
перегрева
1004.6 976.0
00 22.05 Ю 4 10 км 6/0
[Ci sp]
+34.5 +18.2 38 +39 +39 очень
душно
1004.9 976.4
03 22.05 ЮВ 2 10 км 6/0
[Ci sp]
+32.3 +18.2 43 +37 +37 очень
душно
1003.2 974.7
06 22.05 ЮВ 1 10 км 9/0
[Ac As Ci sp]
+31.0 +18.2 46 +35 +35 очень
душно
1005.8 977.1 +31.0
09 22.05 штиль 0 10 км 6/0
[Ci sp]
+35.5 +18.2 36 +39 +50 очень
душно
1006.5 978.8
12 22.05 В 4 10 км 9/0
[Ci sp]
+41.5 +10.3 16 +40 +52 опасность
солнечного
удара
1007.2 978.6
15 22.05 В 3 10 км ясно +43.8 +7.0 11 +41 +53 опасность
перегрева
1005.2 976.7
18 22.05 СВ 2 10 км ясно +43.0 +5.4 10 +40 +41 очень
жарко
1004.7 976.1 +44.5
21 22.05 штиль 0 10 км ясно +39.2 +9.5 17 +38 +38 очень
жарко
1006.0 977.3
00 23.05 С 1 10 км 5/0
[Ci sp]
+37.5 +6.0 14 +35 +35 очень
жарко
1006.2 977.8
03 23.05 СВ 1 10 км 5/0
[Ci sp]
+35.5 +5.7 16 +33 +33 жарко 1005.5 977.1
06 23.05 штиль 0 10 км 8/0
[Ac lent Ci sp]
+31.7 +8.4 24 +31 +31 жарко 1006.9 978.2 +31.7
09 23.05 СВ 4 10 км 6/0
[Ci sp]
+38.5 +3.2 11 +35 +41 очень
жарко
1008.5 979.9
12 23.05 В 6 9000 м пыль 8/0
[Ci sp]
+43.0 +1.2 8 +39 +46 очень
жарко
1007.4 979.0
15 23.05 СВ 5 9000 м пыль 6/0
[Ci sp]
+44.5 +2.5 8 +41 +48 опасность
перегрева
1004.9 976.5
18 23.05 СВ 4 10 км 5/0
[Ac lent Ci sp]
+43.3 +4.2 9 +40 +41 очень
жарко
1004.2 975.7 +45.1
21 23.05 ЮВ 2 10 км 6/0
[Ci sp]
+39.5 +12.0 19 +39 +39 очень
жарко
1006.1 977.7
00 24.05 штиль 0 10 км 6/0
[Ac lent Ci sp]
+36.5 +16.6 31 +39 +39 очень
душно
1008.0 979.5
03 24.05 Ю 2 10 км 8/0
[Ci sp]
+35.5 +18.2 36 +39 +39 очень
душно
1006.6 978.2
06 24.05 штиль 0 10 км 8/0
[Ci sp]
+32.5 +19.9 47 +38 +38 очень
душно
1007.4 978.8 +32.5
09 24.05 З 1 10 км гроза без осадков 9/3 1200 м
[Cb cap Ac As Ci sp]
+33.6 +21.7 50 +42 +46 опасность
перегрева
1010.1 981.3
12 24.05 С 3 9000 м пыль {гроза} 8/0
[Ac As Ci sp]
+36.0 +15.2 29 +38 +48 очень
душно
1009.4 980.7
15 24.05 С 4 10 км 8/0
[Ci sp]
+40.8 +16.8 25 +43 +51 опасность
перегрева
1006.4 977.8
18 24.05 С 3 10 км 8/1 1200 м
[Cb calv Ci sp]
+40.3 +15.1 23 +41 +42 опасность
перегрева
1005.0 976.3 +41.4
21 24.05 Ю 8 6000 м гроза без осадков 9/3 1200 м
[Cb cap Ac As Ci sp]
+34.3 +13.5 29 +35 +35 очень
жарко
1009.2 980.3
00 25.05 СЗ 6 10 км гроза, ливневой дождь 10/4 1200 м
[Cb cap Ac As]
+28.5 +20.3 61 +35 +35 очень
душно
1009.9 980.8 0.2
03 25.05 штиль 0 10 км пыль {гроза} 9/0
[Ac As Ci sp]
+29.4 +20.3 58 +36 +36 очень
душно
1006.1 977.3
06 25.05 штиль 0 10 км {гроза} 9/0
[Ac As Ci sp]
+30.2 +17.6 47 +34 +34 очень
душно
1010.0 981.2 +77.8 0.2
09 25.05 ЮВ 4 9000 м пыль 9/0
[Ci sp]
+32.1 +15.9 38 +35 +40 очень
душно
1009.7 980.7
12 25.05 ЮЗ 4 9000 м пыль 9/0
[Ac lent Ci sp]
+37.3 +16.7 30 +40 +49 очень
душно
1007.2 978.8

 

Местоположение метеостанции Nara (Мали): широта 15.17 долгота -7.28 высота над уровнем моря 265 м.

В архиве по умолчанию представлена погода в Nara за последнюю неделю. Архивные данные за месяц целиком и за предыдущие месяцы, начиная с января 2011 года, Вы можете получить, выбрав интересующий диапазон дат из раскрывающегося списка и нажав кнопку "Ввод!".


*Определитесь, кто Вы:
робот инопланетянин человек

Внимание! Время в таблицах - всемирное. Для получения местного времени необходимо прибавить поправку, которая в Nara равна 0 ч.

Смотрите также архив погоды в соседних городах и на ближайших метеорологических станциях:

Погода в Nema (Мавритания) (159 км)
Погода в Nioro Du Sahel (Мали) (222 км)
Погода в Segou (Мали) (231 км)
Погода в Aioun el Atrouss (Мавритания) (301 км)
Погода в Bamako (Мали) (302 км)
Погода в Kita (Мали) (332 км)
Погода в San (Мали) (334 км)
Погода в Mopti (Мали) (349 км)
Погода в Yelimane (Мали) (352 км)
Погода в Koutiala (Мали) (367 км)

Пояснения к столбцам:

Ветер - указаны скорость ветра в м/с - средняя за 10 мин, порывы в срок и между сроками (в фигурных скобках) и направление, откуда дует ветер: С - северный, СВ - северо-восточный, В - восточный, ЮВ - юго-восточный, Ю - южный, ЮЗ - юго-западный, З - западный, СЗ - северо-западный.
Видимость - горизонтальная дальность видимости в метрах или километрах. При видимости от 1 до 10 км при отсутствии осадков обычно наблюдается дымка, при ухудшении видимости до 1 км и менее - туман. В сухую погоду видимость может ухудшаться дымом, пылью или мглою.
Явления - указаны атмосферные явления, наблюдавшиеся в срок или в последний час перед сроком; фигурными скобками обозначены явления, наблюдавшиеся между сроками (за 1-3 часа до срока); квадратными скобками обозначены град или гололедные отложения с указанием их диаметра в мм.
Облачность - указаны через наклонную черту общая и нижняя облачность в баллах и высота нижней границы облаков в метрах; квадратными скобками обозначены формы облаков: Ci - перистые, Cs - перисто-слоистые, Cc - перисто-кучевые, Ac - высококучевые, As - высокослоистые, Sc - слоисто-кучевые, Ns - слоисто-дождевые, Cu - кучевые, Cb - кучево-дождевые. Подробнее классификацию облаков см. в Атласе облаков (PDF).
T - Температура воздуха - температура, измеренная на высоте 2 м над землей.
Td - Температура точки росы - температура, при понижении до которой содержащийся в воздухе водяной пар достигнет насыщения.
f - Относительная влажность воздуха - влажноcть воздуха, измеренная на высоте 2 м над землей.
Te - Эффективная температура - температура, которую ощущает одетый по сезону человек в тени. Характеристика душности погоды. При расчете учитывается влияние влажности воздуха и скорости ветра на теплоощущения человека.
Tes - Эффективная температура на солнце - температура, которую ощущает человек, с поправкой на солнечный нагрев. Характеристика знойности погоды. Зависит от высоты солнца над горизонтом, облачности и скорости ветра. Ночью, в пасмурную погоду, а также при ветре 12 м/с и более поправка равна нулю.
P - Атмосферное давление - приведенное к уровню моря атмосферное давление.
Po - Атмосферное давление - измеренное на уровне метеостанции атмосферное давление.
Tmin - Минимальная температура - минимум температуры воздуха на высоте 2 м над землей.
Tmax - Максимальная температура - максимум температуры воздуха на высоте 2 м над землей.
R - Количество осадков - Количество выпавших осадков за период времени, мм. При наведении курсора мыши на число - период времени, за который выпало указанное количество осадков.
R24 - Количество осадков - Количество выпавших осадков за 24 часа, мм.
S - Снежный покров - Высота снежного покрова, см. При наведении курсора мыши на число - состояние снежного покрова и степень покрытия местности в баллах.